Regional Weather Roundup
Issued by NWS

Home | Current Version | Previous Version | Text Only | Print | Product List | Glossary Off
Versions: 1 2 3 4 5 6 7 8 9 10 11 12 13 14 15 16 17 18 19 20 21 22 23 24 25 26 27 28 29 30 31 32 33 34 35 36 37 38 39 40 41 42 43 44 45 46 47 48 49 50

000
ASUS45 KABQ 011801
RWRNM
WEATHER ROUNDUP FOR NEW MEXICO
NATIONAL WEATHER SERVICE ALBUQUERQUE NM
1200 PM MDT WED APR 01 2015

NOTE: "FAIR" MEANS FEW OR NO CLOUDS BELOW 12,000 FEET AGL WITH NO
       SIGNIFICANT WEATHER OR OBSTRUCTIONS TO VISION.

      THIS PRODUCT IS RELEASED AS TWO VERSIONS.  ONE VERSION NEAR
      THE TOP OF THE HOUR CONTAINING PRELIMINARY DATA FROM ALBUQUERQUE
      AND OTHER STATIONS.  A FINAL VERSION WITH ADDITIONAL DATA IS
      ISSUED ABOUT 10 MINUTES AFTER THE HOUR.

NMZ501-503-504-510>518-011900-
NORTHWEST PLATEAU/NORTHCENTRAL MOUNTAINS

CITY           SKY/WX    TMP DP  RH WIND       PRES   REMARKS
FARMINGTON     SUNNY     69  22  16 W23G29    29.94F
6HR MIN TEMP:  40; 6HR MAX TEMP:  69;

SANTA FE       MOSUNNY   68  21  16 SW23G31   29.98F
6HR MIN TEMP:  35; 6HR MAX TEMP:  68;

TAOS           PTSUNNY   61  25  25 W17G23    30.01F
ANGEL FIRE     FAIR      52  26  36 W22G30    30.04F

$$
NMZ402-403-502-505>509-011900-
WESTCENTRAL MOUNTAINS/SOUTHWEST MOUNTAINS

CITY           SKY/WX    TMP DP  RH WIND       PRES   REMARKS
GALLUP         MOSUNNY   65  30  27 SW23G37   30.05F
6HR MIN TEMP:  34; 6HR MAX TEMP:  65;


$$
NMZ407-409-411-412-011900-
SOUTHERN DESERTS

CITY           SKY/WX    TMP DP  RH WIND       PRES   REMARKS
DEMING         SUNNY     75  40  28 SW9G17    30.02F
6HR MIN TEMP:  46; 6HR MAX TEMP:  75;

HOLLOMAN AFB   SUNNY     74  38  27 VRB2      29.97F
ALAMOGORDO     SUNNY     73  37  27 NW6       30.00F
T OR C         SUNNY     73  34  23 S10G17    30.00F
6HR MIN TEMP:  48; 6HR MAX TEMP:  73;


$$
NMZ519>523-011900-
CENTRAL VALLEYS/CENTRAL HIGHLANDS

CITY           SKY/WX    TMP DP  RH WIND       PRES   REMARKS
ALBUQUERQUE    MOSUNNY   71  27  19 W25G31    29.99F
6HR MIN TEMP:  48; 6HR MAX TEMP:  71;

DOUBLE EAGLE   MOSUNNY   70  25  18 SW21G26   30.00F
MORIARTY ARPT  FAIR      68  23  18 W21G26    30.02F
6HR MIN TEMP:  30; 6HR MAX TEMP:  68;

CLINES CORNERS SUNNY     65  24  21 W21G31    30.02F
6HR MIN TEMP:  40; 6HR MAX TEMP:  65;

BELEN          FAIR      73  22  15 W17G29    29.99F
6HR MIN TEMP:  47; 6HR MAX TEMP:  73;

SOCORRO        NOT AVBL

$$
NMZ524>526-539-540-011900-
SOUTHCENTRAL MOUNTAINS

CITY           SKY/WX    TMP DP  RH WIND       PRES   REMARKS
RUIDOSO        NOT AVBL

$$
NMZ527>531-011900-
NORTHEAST HIGHLANDS/NORTHEAST PLAINS

CITY           SKY/WX    TMP DP  RH WIND       PRES   REMARKS
LAS VEGAS      SUNNY     68  19  15 SW23G32   29.97F
6HR MIN TEMP:  47; 6HR MAX TEMP:  68;

RATON          PTSUNNY   66  24  20 MISG      29.91F
6HR MIN TEMP:  32; 6HR MAX TEMP:  66;

CLAYTON        PTSUNNY   78  26  14 W16G30    29.83F
6HR MIN TEMP:  47; 6HR MAX TEMP:  79;


$$
NMZ532>537-011900-
EASTCENTRAL PLAINS

CITY           SKY/WX    TMP DP  RH WIND       PRES   REMARKS
TUCUMCARI      SUNNY     81  27  14 NW14G24   29.82F
6HR MIN TEMP:  49; 6HR MAX TEMP:  81;

CANNON AFB     SUNNY     78  30  17 NW13G22   29.87F
6HR MIN TEMP:  51; 6HR MAX TEMP:  79;

CLOVIS AIRPORT SUNNY     81  32  17 W10G18    29.86F

$$
NMZ028-029-538-011900-
SOUTHEAST PLAINS

CITY           SKY/WX    TMP DP  RH WIND       PRES   REMARKS
ROSWELL        SUNNY     81  35  19 CALM      29.89F
6HR MIN TEMP:  46; 6HR MAX TEMP:  81;

ARTESIA        SUNNY     79  37  22 CALM      29.91F
CARLSBAD       SUNNY     82  37  20 N3        29.89F
6HR MIN TEMP:  47; 6HR MAX TEMP:  82;

HOBBS          SUNNY     77  37  24 SW9G16    29.92F


$$



USA.gov is the U.S. government's official web portal to all federal, state and local government web resources and services.